Вернуться в каталог

OPS 9438

DSCS 2-8

АктивенВоенныеGEO
NORAD 10001·PAYLOAD·🇺🇸 United States

Запущен May 12, 1977 с Cape Canaveral Space Force Station

Loading…

TLE

СвежийSource: Space-Track

Эпоха: Sep 14, 2026, 11:07 UTC

1 10001U 77034B   26257.46341618 -.00000124  00000-0  00000-0 0  9996
2 10001   8.5598 298.9518 0033337 161.0019 259.4317  0.95427038118388

Отслеживайте OPS 9438 в реальном времени с AllMySat

Download on the App Store